IRNSS-1C

Last updated on Wed Sep 17 2025 00:02:48 GMT+0000 (Coordinated Universal Time)

1 40269U 14061A 25259.60019875 -.00000183 00000+0 00000+0 0 9993 2 40269 5.8140 94.4211 0020118 4.8937 195.8745 1.00271544 39943
UTC large
Height (km)
Speed (km/s)
/
Latitude / Longitude
Inclination (degrees)
Orbital Period (minutes)
Azimuth
Elevation
Range (km)
Doppler Factor

Next 0 passes for location: London (51.5072 / 0.1276)

Sorry there are no passes over London.